Lid_Strength_Index
6 6 8 11 13 10 15 15 17 15 12 9 7 7 7 7 6 6 5 4 4 4 4 3 3 3 2 2 2 2 2 1
8 7 7 9 8 14 15 19 20 15 14 13 10 8 8 7 7 6 5 5 4 4 3 3 2 2 2 2 2 2 2 1
10 11 10 11 12 12 12 14 18 17 14 10 9 8 8 7 7 7 6 5 4 4 3 3 2 2 2 2 2 2 1 2
12 9 7 8 10 11 15 15 14 15 13 8 8 8 7 7 8 7 5 5 4 4 3 3 3 3 3 2 2 2 1 2
14 12 10 9 9 9 11 12 14 15 13 9 7 7 6 7 6 5 5 5 5 4 4 4 3 3 3 2 2 2 2 2
15 13 11 11 10 9 11 13 13 13 12 9 8 8 8 7 6 6 6 5 5 4 4 4 3 3 3 3 2 2 2 2
11 9 9 9 9 9 11 11 12 11 10 9 8 8 8 7 6 6 6 6 5 5 4 4 3 3 3 3 3 3 4 4
13 9 8 10 8 9 9 9 10 10 11 9 7 7 7 7 7 7 6 6 5 4 4 4 3 3 4 4 4 4 4 4
15 9 10 12 10 10 10 9 9 10 10 8 8 8 7 7 7 6 6 5 5 5 4 4 3 4 4 4 4 4 4 3
13 12 16 10 8 8 8 8 7 8 8 8 8 7 6 6 6 6 5 5 5 4 4 3 3 2 2 2 2 2 2 2
13 13 11 9 9 8 9 10 7 9 8 7 7 6 7 5 5 5 5 4 4 3 3 3 3 2 2 3 3 2 2 2
14 13 15 10 8 6 6 13 7 7 8 8 7 11 9 5 4 4 4 3 3 3 3 3 3 2 3 3 3 3 2 2
13 13 11 8 6 6 13 13 7 7 7 7 9 7 6 4 4 4 4 3 3 3 3 3 2 2 3 3 3 2 2 2
14 13 14 7 8 9 9 6 6 6 6 7 6 6 5 5 5 4 4 3 3 3 3 3 2 3 3 3 3 2 2 3
12 12 9 8 8 7 5 6 6 6 5 5 6 6 5 5 5 4 4 4 3 3 3 3 3 3 3 3 2 2 2 3
12 11 7 7 6 5 4 5 5 4 5 5 6 5 5 5 4 4 4 4 3 3 4 4 3 3 3 2 2 2 2 2
11 10 8 6 6 5 5 4 4 4 4 5 5 5 5 5 4 4 4 3 3 3 4 3 3 3 3 3 2 3 2 3
11 9 9 8 5 5 5 5 5 5 5 4 4 5 4 5 4 4 4 3 3 4 4 3 4 3 3 2 3 3 3 3
8 7 6 6 5 4 5 5 4 4 4 5 4 4 4 4 4 4 3 3 3 3 3 3 3 3 3 2 2 3 3 3